Stations météo

Publicité
Le Havre/Octeville, France (7046): Température de l'air & dewpoint: 11.11.2018 17:00:00 - 17.11.2018 17:00:00 (CET)Le Havre/Octeville, France (7046): Vitesse du vent & gusts: 11.11.2018 17:00:00 - 17.11.2018 17:00:00 (CET)Le Havre/Octeville, France (7046): Direction du vent: 11.11.2018 17:00:00 - 17.11.2018 17:00:00 (CET)Le Havre/Octeville, France (7046): reduced air pressure: 11.11.2018 17:00:00 - 17.11.2018 17:00:00 (CET)Le Havre/Octeville, France (7046): visibility: 11.11.2018 17:00:00 - 17.11.2018 17:00:00 (CET)Le Havre/Octeville, France (7046): Quantités de précipitations: 11.11.2018 17:00:00 - 17.11.2018 17:00:00 (CET)
Date & Time tt [°C] td [°C] ff [km/h] ff [knt] fx [km/h] fx [knt] dd ppp [hPa] vv [km] rr [mm]
17.11.2018 17:00:00 7,1 2,4 16 8 27 14 ENE 1022,7 13 0,0
17.11.2018 16:00:00 8,3 2,7 16 9 29 16 ENE 1022,9 10 0,0
17.11.2018 15:00:00 8,2 2,6 19 10 27 14 ENE 1023,0 7 0,0
17.11.2018 14:00:00 7,0 2,3 16 9 32 17 E 1023,3 6 0,0
17.11.2018 13:00:00 6,7 2,2 18 10 32 17 E 1023,9 7 0,0
17.11.2018 12:00:00 5,7 2,0 19 10 32 17 E 1024,3 8 0,0
17.11.2018 11:00:00 5,1 2,6 19 11 32 17 E 1024,4 8 0,0
17.11.2018 10:00:00 4,3 2,2 19 11 32 18 E 1024,8 6 0,0
17.11.2018 09:00:00 4,3 2,5 24 13 34 19 E 1024,5 5 0,0
17.11.2018 08:00:00 4,8 3,1 21 11 34 18 E 1024,0 4,8 0,0
17.11.2018 07:00:00 5,2 3,7 20 11 36 19 E 1023,7 5 0,0
17.11.2018 06:00:00 5,2 3,8 24 13 34 18 E 1023,6 5 0,0
17.11.2018 05:00:00 5,3 4,9 19 10 29 16 E 1023,9 3,4 0,0
17.11.2018 04:00:00 5,4 5,0 18 10 29 15 E 1024,4 0,2 0,0
17.11.2018 03:00:00 5,8 5,4 20 11 31 17 E 1024,7 0,2 0,0
17.11.2018 02:00:00 6,2 5,8 18 10 31 17 E 1024,4 0,2 0,0
17.11.2018 01:00:00 6,5 6,1 16 8 27 15 E 1024,5 0,3 0,0
17.11.2018 00:00:00 6,7 6,3 18 10 34 19 E 1024,4 0,3 0,0
16.11.2018 23:00:00 6,9 6,5 22 12 32 18 E 1024,4 0,4 0,0
16.11.2018 22:00:00 7,4 7,0 18 10 29 16 E 1024,2 0,6 0,0
16.11.2018 21:00:00 7,5 6,9 18 10 29 15 E 1024,2 1,1 0,0
16.11.2018 20:00:00 8,3 7,7 13 7 33 18 E 1024,4 1,5 0,0
16.11.2018 19:00:00 8,7 7,9 21 11 29 16 E 1024,2 4,5 0,0
16.11.2018 18:00:00 8,8 8,0 21 12 31 17 E 1024,0 6 0,0
16.11.2018 17:00:00 9,6 8,7 21 12 32 17 E 1023,7 6 0,0
16.11.2018 16:00:00 9,8 8,7 18 10 26 14 E 1023,9 6 0,0
16.11.2018 15:00:00 10,0 9,1 13 7 19 10 E 1024,1 4,6 0,0
16.11.2018 14:00:00 10,8 9,2 9 5 27 14 E 1024,2 9 0,0
16.11.2018 13:00:00 9,6 8,7 19 10 28 15 E 1024,3 8 0,0
16.11.2018 12:00:00 8,9 8,4 16 8 26 14 ESE 1025,0 1,7 0,0
16.11.2018 11:00:00 8,5 8,1 14 8 21 12 ESE 1025,2 0,4 0,0
16.11.2018 10:00:00 8,4 8,0 16 9 26 14 E 1024,8 0,2 0,0
16.11.2018 09:00:00 8,5 8,1 18 10 27 15 E 1024,4 0,1 0,0
16.11.2018 08:00:00 8,6 8,2 18 10 26 14 E 1023,7 0,1 0,0
16.11.2018 07:00:00 8,8 8,3 12 7 20 11 E 1023,5 0,1 0,0
16.11.2018 06:00:00 8,8 8,3 16 8 22 12 E 1023,4 0,2 0,0
16.11.2018 05:00:00 8,9 8,4 13 7 22 12 E 1023,5 0,2 0,0
16.11.2018 04:00:00 8,9 8,4 13 7 26 14 ESE 1023,3 0,3 0,0
16.11.2018 03:00:00 8,8 8,3 15 8 27 15 ESE 1023,1 0,2 0,0
16.11.2018 02:00:00 8,9 8,4 16 9 28 15 ESE 1022,8 0,3 0,0
16.11.2018 01:00:00 9,0 8,5 17 9 27 15 ESE 1022,8 0,3 0,0
16.11.2018 00:00:00 9,0 8,4 17 9 31 17 ESE 1022,5 0,9 0,0
15.11.2018 23:00:00 9,1 8,5 16 9 28 15 ESE 1022,2 0,9 0,0
15.11.2018 22:00:00 9,2 8,6 16 9 29 16 ESE 1022,1 1,2 0,0
15.11.2018 21:00:00 9,3 8,7 16 9 29 16 ESE 1022,0 1,3 0,0
15.11.2018 20:00:00 9,2 8,6 19 10 33 18 ESE 1021,6 2,0 0,0
15.11.2018 19:00:00 9,2 8,6 19 11 35 19 ESE 1021,2 3,6 0,0
15.11.2018 18:00:00 9,3 8,5 21 11 36 20 E 1020,7 4,5 0,0
15.11.2018 17:00:00 9,6 8,4 22 12 32 17 ESE 1020,4 8 0,0
15.11.2018 16:00:00 10,5 8,4 21 12 31 17 E 1020,7 12 0,0
15.11.2018 15:00:00 11,3 8,7 20 11 29 16 E 1020,6 8 0,0
15.11.2018 14:00:00 11,0 8,6 18 10 30 16 ESE 1020,6 6 0,0
15.11.2018 13:00:00 10,8 8,9 20 11 30 16 E 1021,1 5 0,0
15.11.2018 12:00:00 10,0 8,8 18 10 24 13 E 1021,7 3,6 0,0
15.11.2018 11:00:00 9,0 8,4 19 10 31 17 E 1021,9 1,6 0,0
15.11.2018 10:00:00 8,2 7,6 19 10 26 14 E 1021,8 0,4 0,0
15.11.2018 09:00:00 7,8 7,4 16 9 23 13 E 1021,7 0,4 0,0
15.11.2018 08:00:00 8,0 7,4 13 7 19 11 E 1021,4 0,2 0,0
15.11.2018 07:00:00 8,3 7,7 12 6 19 11 ESE 1021,2 0,2 0,0
15.11.2018 06:00:00 9,2 8,4 13 7 19 10 ESE 1021,0 6 0,0
15.11.2018 05:00:00 9,1 8,3 12 6 17 9 E 1020,9 4,4 0,0
15.11.2018 04:00:00 9,7 8,9 11 6 14 8 E 1021,2 3,9 0,0
15.11.2018 03:00:00 9,6 8,7 9 5 15 8 E 1021,5 3,9 0,0
15.11.2018 02:00:00 11,0 9,6 9 5 14 8 SE 1021,5 4,7 0,0
15.11.2018 01:00:00 11,0 9,6 10 5 16 9 ESE 1021,7 7 0,0
15.11.2018 00:00:00 11,1 9,4 9 5 18 10 ESE 1022,0 9 0,0
14.11.2018 23:00:00 10,9 9,2 10 5 20 11 ESE 1022,4 9 0,0
14.11.2018 22:00:00 11,2 9,3 12 7 23 12 SE 1022,5 11 0,0
14.11.2018 21:00:00 11,4 9,5 12 7 26 14 ESE 1022,0 11 0,0
14.11.2018 20:00:00 12,2 9,8 15 8 26 14 ESE 1022,0 16 0,0
14.11.2018 19:00:00 12,2 9,6 15 8 23 13 ESE 1022,0 14 0,0
14.11.2018 18:00:00 12,1 9,3 13 7 21 12 ESE 1022,0 18 0,0
14.11.2018 17:00:00 14,1 9,9 9 5 23 12 SE 1022,0 26 0,0
14.11.2018 16:00:00 14,7 9,7 14 8 26 14 ESE 1022,2 15 0,0
14.11.2018 15:00:00 14,6 9,2 15 8 25 14 ESE 1022,3 27 0,0
14.11.2018 14:00:00 13,6 8,6 18 10 25 14 E 1022,8 29 0,0
14.11.2018 13:00:00 12,9 7,8 16 9 24 13 E 1023,5 29 0,0
14.11.2018 12:00:00 11,7 6,6 16 9 24 13 ESE 1024,2 30 0,0
14.11.2018 11:00:00 10,4 6,0 13 7 22 12 ESE 1024,7 20 0,0
14.11.2018 10:00:00 9,1 6,0 14 8 23 12 SE 1025,1 28 0,0
14.11.2018 09:00:00 8,7 6,5 10 6 17 9 ESE 1025,2 36 0,0
14.11.2018 08:00:00 7,9 6,5 8 4 16 9 ESE 1025,3 20 0,0
14.11.2018 07:00:00 8,6 7,1 10 5 19 11 SE 1025,2 20 0,0
14.11.2018 06:00:00 8,9 7,2 9 5 19 10 SE 1025,6 23 0,0
14.11.2018 05:00:00 10,1 7,7 11 6 25 14 S 1025,9 43 0,0
14.11.2018 04:00:00 9,8 7,4 12 6 21 11 SSE 1026,6 40 0,0
14.11.2018 03:00:00 9,8 7,6 13 7 19 10 S 1027,1 39 0,0
14.11.2018 02:00:00 9,9 7,7 11 6 23 12 SSE 1027,5 37 0,0
14.11.2018 01:00:00 10,3 7,7 14 7 29 16 S 1028,0 37 0,0
14.11.2018 00:00:00 10,8 7,8 13 7 24 13 S 1027,8 41 0,0
13.11.2018 23:00:00 10,8 6,9 14 8 24 13 S 1027,9 45 0,0
13.11.2018 22:00:00 11,2 6,9 11 6 23 12 S 1028,1 45 0,0
13.11.2018 21:00:00 11,5 7,0 11 6 19 10 S 1027,8 44 0,0
13.11.2018 20:00:00 11,4 6,9 9 5 14 8 SSE 1027,7 48 0,0
13.11.2018 19:00:00 11,9 6,8 8 4 16 9 S 1027,9 49 0,0
13.11.2018 18:00:00 12,0 7,7 8 5 14 8 S 1027,5 57 0,0
13.11.2018 17:00:00 12,7 7,6 10 6 24 13 SSW 1027,4 58 0,0
13.11.2018 16:00:00 13,5 8,1 16 9 27 15 SSW 1027,0 36 0,0
13.11.2018 15:00:00 13,6 8,4 16 9 32 17 SW 1026,6 23 0,0
13.11.2018 14:00:00 13,2 8,5 20 11 34 18 SW 1026,5 22 0,0
13.11.2018 13:00:00 12,9 8,6 22 12 40 22 SW 1026,2 22 0,0
13.11.2018 12:00:00 12,5 8,6 24 13 38 20 SSW 1025,9 20 0,0
13.11.2018 11:00:00 11,7 8,5 23 12 37 20 SSW 1025,5 19 0,0
13.11.2018 10:00:00 10,8 8,2 22 12 37 20 SSW 1024,8 42 0,0
13.11.2018 09:00:00 10,4 8,2 23 12 37 20 SSW 1023,7 20 0,0
13.11.2018 08:00:00 10,6 7,8 24 13 45 25 SSW 1022,6 38 0,0
13.11.2018 07:00:00 10,6 8,0 22 12 42 23 SW 1021,7 40 0,0
13.11.2018 06:00:00 10,7 8,1 24 13 40 21 SSW 1020,7 44 0,0
13.11.2018 05:00:00 10,8 8,2 25 13 45 24 SSW 1019,9 42 0,0
13.11.2018 04:00:00 11,0 8,4 25 13 42 23 SSW 1019,4 40 0,0
13.11.2018 03:00:00 10,6 8,7 19 11 37 20 S 1019,0 31 0,0
13.11.2018 02:00:00 10,6 8,7 21 12 35 19 S 1018,4 35 0,0
13.11.2018 01:00:00 11,1 8,8 21 12 35 19 S 1017,9 38 0,0
13.11.2018 00:00:00 11,2 8,9 20 11 37 20 SSW 1017,2 36 0,0
12.11.2018 23:00:00 11,2 8,9 21 11 38 21 S 1017,1 43 0,0
12.11.2018 22:00:00 11,5 8,9 22 12 39 21 S 1017,1 41 0,0
12.11.2018 21:00:00 11,5 8,7 20 11 36 20 S 1016,6 38 0,0
12.11.2018 20:00:00 11,6 8,8 18 10 33 18 S 1016,4 52 0,0
12.11.2018 19:00:00 11,7 8,7 15 8 28 15 S 1016,0 58 0,0
12.11.2018 18:00:00 12,0 8,5 17 9 32 17 SSE 1015,2 60 0,0
12.11.2018 17:00:00 12,5 8,4 16 9 32 17 S 1014,9 42 0,0
12.11.2018 16:00:00 12,7 8,2 17 9 37 20 S 1014,5 46 0,0
12.11.2018 15:00:00 12,9 8,0 22 12 36 19 S 1013,9 35 0,0
12.11.2018 14:00:00 13,2 8,9 22 12 34 19 S 1013,7 40 0,0
12.11.2018 13:00:00 12,3 8,4 25 13 40 21 S 1013,6 46 0,0
12.11.2018 12:00:00 11,5 8,2 18 10 31 17 S 1013,5 52 0,0
12.11.2018 11:00:00 11,0 8,7 21 11 34 18 S 1013,4 34 0,0
12.11.2018 10:00:00 10,7 8,6 17 9 28 15 S 1012,8 55 0,0
12.11.2018 09:00:00 10,5 8,3 14 7 31 17 SSE 1011,9 60 0,0
12.11.2018 08:00:00 10,7 8,5 16 8 25 13 SSE 1011,1 26 0,0
12.11.2018 07:00:00 10,9 9,0 16 8 27 15 SSE 1010,2 60 0,0
12.11.2018 06:00:00 11,3 9,6 12 6 22 12 S 1010,0 55 0,0
12.11.2018 05:00:00 11,4 9,5 13 7 22 12 SSE 1009,3 50 0,0
12.11.2018 04:00:00 11,4 9,5 13 7 24 13 SSE 1009,0 20 0,0
12.11.2018 03:00:00 11,4 9,3 11 6 21 11 SSE 1009,0 42 0,0
12.11.2018 02:00:00 11,4 9,3 11 6 22 12 S 1009,1 39 0,0
12.11.2018 01:00:00 11,4 9,3 14 8 21 12 S 1008,8 35 0,0
12.11.2018 00:00:00 11,4 9,3 13 7 24 13 S 1008,7 44 0,0
11.11.2018 23:00:00 11,4 9,1 15 8 25 13 S 1008,8 50 0,0
11.11.2018 22:00:00 11,5 9,1 16 9 29 16 S 1008,5 49 0,0
11.11.2018 21:00:00 11,4 8,8 14 7 27 15 S 1008,2 52 0,0
11.11.2018 20:00:00 11,5 8,7 14 8 24 13 S 1007,7 51 0,0
11.11.2018 19:00:00 11,7 8,7 12 6 23 13 S 1006,8 49 0,0
11.11.2018 18:00:00 12,1 8,6 15 8 33 18 S 1006,3 57 0,0
11.11.2018 17:00:00 12,6 8,5 19 11 30 16 S 1005,5 60 0,0

tt = Température de l'air
td = dewpoint
ff = Vitesse du vent
fx = gusts
dd = Direction du vent
ppp = reduced air pressure
vv = visibility
rr = Quantités de précipitations

stations d'obs. à proximité